Time,TemperatureF,DewpointF,PressureIn,WindDirection,WindDirectionDegrees,WindSpeedMPH,WindSpeedGustMPH,Humidity,HourlyPrecipIn,Conditions,Clouds,dailyrainin,SoftwareType,DateUTC
2013-02-24 00:00:00,32.0,19.3,29.44,NNE,22,1.1,1.3,59,0.00,,---,0.00,VWS V14.01,2013-02-24 06:00:00,
2013-02-24 00:05:00,31.8,19.1,29.44,ENE,68,2.7,2.7,59,0.00,,---,0.00,VWS V14.01,2013-02-24 06:05:00,
2013-02-24 00:10:00,32.2,20.3,29.44,ENE,68,2.0,2.5,61,0.00,,---,0.00,VWS V14.01,2013-02-24 06:10:00,
2013-02-24 00:15:00,32.2,20.3,29.44,ENE,68,2.5,2.5,61,0.00,,---,0.00,VWS V14.01,2013-02-24 06:15:00,
2013-02-24 00:20:00,32.2,20.3,29.44,ENE,68,0.0,1.1,61,0.00,,---,0.00,VWS V14.01,2013-02-24 06:20:00,
2013-02-24 00:25:00,32.2,19.9,29.44,ENE,68,0.0,0.0,60,0.00,,---,0.00,VWS V14.01,2013-02-24 06:25:00,
2013-02-24 00:30:00,32.0,20.5,29.44,ENE,68,1.1,1.1,62,0.00,,---,0.00,VWS V14.01,2013-02-24 06:30:00,
2013-02-24 00:35:00,31.6,20.5,29.44,NNW,338,2.5,2.5,63,0.00,,---,0.00,VWS V14.01,2013-02-24 06:35:00,
2013-02-24 00:40:00,31.6,20.5,29.44,NNW,338,1.3,1.3,63,0.00,,---,0.00,VWS V14.01,2013-02-24 06:40:00,
2013-02-24 00:45:00,31.5,20.7,29.44,North,0,1.6,2.5,64,0.00,,---,0.00,VWS V14.01,2013-02-24 06:45:00,
2013-02-24 00:50:00,31.5,20.7,29.44,NNW,338,2.0,2.0,64,0.00,,---,0.00,VWS V14.01,2013-02-24 06:50:00,
2013-02-24 00:55:00,31.6,20.9,29.44,North,0,2.7,2.7,64,0.00,,---,0.00,VWS V14.01,2013-02-24 06:55:00,
2013-02-24 01:00:00,31.5,20.7,29.44,WNW,292,2.2,2.2,64,0.00,,---,0.00,VWS V14.01,2013-02-24 07:00:00,
2013-02-24 01:06:00,31.3,20.9,29.44,NW,315,1.1,1.1,65,0.00,,---,0.00,VWS V14.01,2013-02-24 07:06:00,
2013-02-24 01:11:00,31.1,20.4,29.44,NW,315,1.3,1.6,64,0.00,,---,0.00,VWS V14.01,2013-02-24 07:11:00,
2013-02-24 01:16:00,31.1,20.7,29.44,NW,315,0.0,0.9,65,0.00,,---,0.00,VWS V14.01,2013-02-24 07:16:00,
2013-02-24 01:21:00,31.1,20.7,29.44,NW,315,0.0,1.1,65,0.00,,---,0.00,VWS V14.01,2013-02-24 07:21:00,
2013-02-24 01:26:00,31.3,21.3,29.44,NNW,338,0.0,2.0,66,0.00,,---,0.00,VWS V14.01,2013-02-24 07:26:00,
2013-02-24 01:31:00,31.3,22.0,29.44,NNW,338,0.0,1.6,68,0.00,,---,0.00,VWS V14.01,2013-02-24 07:31:00,
2013-02-24 01:36:00,31.3,22.0,29.44,NNW,338,0.0,0.9,68,0.00,,---,0.00,VWS V14.01,2013-02-24 07:36:00,
2013-02-24 01:41:00,31.1,21.1,29.44,NNW,338,0.0,1.1,66,0.00,,---,0.00,VWS V14.01,2013-02-24 07:41:00,
2013-02-24 01:46:00,31.1,21.4,29.44,NNW,338,1.3,1.3,67,0.00,,---,0.00,VWS V14.01,2013-02-24 07:46:00,
2013-02-24 01:51:00,31.1,21.4,29.44,NNW,338,0.9,2.2,67,0.00,,---,0.00,VWS V14.01,2013-02-24 07:51:00,
2013-02-24 01:56:00,30.9,21.6,29.44,NNW,338,0.0,0.0,68,0.00,,---,0.00,VWS V14.01,2013-02-24 07:56:00,
2013-02-24 02:01:00,30.6,21.3,29.41,NNW,338,1.3,1.6,68,0.00,,---,0.00,VWS V14.01,2013-02-24 08:01:00,
2013-02-24 02:06:00,30.4,21.4,29.41,NW,315,1.6,1.6,69,0.00,,---,0.00,VWS V14.01,2013-02-24 08:06:00,
2013-02-24 02:11:00,30.2,21.6,29.41,NW,315,0.9,1.3,70,0.00,,---,0.00,VWS V14.01,2013-02-24 08:11:00,
2013-02-24 02:16:00,30.0,21.4,29.41,NW,315,0.0,1.1,70,0.00,,---,0.00,VWS V14.01,2013-02-24 08:16:00,
2013-02-24 02:21:00,30.0,21.4,29.41,NNW,338,0.9,2.2,70,0.00,,---,0.00,VWS V14.01,2013-02-24 08:21:00,
2013-02-24 02:26:00,30.0,21.4,29.41,North,0,0.0,0.9,70,0.00,,---,0.00,VWS V14.01,2013-02-24 08:26:00,
2013-02-24 02:31:00,30.0,21.4,29.41,North,0,1.6,2.2,70,0.00,,---,0.00,VWS V14.01,2013-02-24 08:31:00,
2013-02-24 02:36:00,30.2,21.6,29.41,North,0,0.9,1.1,70,0.00,,---,0.00,VWS V14.01,2013-02-24 08:36:00,
2013-02-24 02:41:00,30.2,21.6,29.41,North,0,0.0,0.0,70,0.00,,---,0.00,VWS V14.01,2013-02-24 08:41:00,
2013-02-24 02:46:00,30.2,21.3,29.41,North,0,0.0,0.0,69,0.00,,---,0.00,VWS V14.01,2013-02-24 08:46:00,
2013-02-24 02:51:00,29.8,20.6,29.41,North,0,0.0,0.0,68,0.00,,---,0.00,VWS V14.01,2013-02-24 08:51:00,
2013-02-24 02:56:00,29.8,20.6,29.41,North,0,0.0,0.0,68,0.00,,---,0.00,VWS V14.01,2013-02-24 08:56:00,
2013-02-24 03:01:00,29.8,20.9,29.41,North,0,0.0,0.0,69,0.00,,---,0.00,VWS V14.01,2013-02-24 09:01:00,
2013-02-24 03:06:00,29.8,21.3,29.41,North,0,0.9,2.0,70,0.00,,---,0.00,VWS V14.01,2013-02-24 09:06:00,
2013-02-24 03:11:00,30.0,21.4,29.41,North,0,0.0,0.0,70,0.00,,---,0.00,VWS V14.01,2013-02-24 09:11:00,
2013-02-24 03:16:00,30.2,22.3,29.41,NNW,338,1.3,1.6,72,0.00,,---,0.00,VWS V14.01,2013-02-24 09:16:00,
2013-02-24 03:21:00,30.2,22.9,29.41,NW,315,1.3,1.6,74,0.00,,---,0.00,VWS V14.01,2013-02-24 09:21:00,
2013-02-24 03:26:00,30.0,22.4,29.41,NW,315,0.0,1.3,73,0.00,,---,0.00,VWS V14.01,2013-02-24 09:26:00,
2013-02-24 03:31:00,30.0,22.4,29.44,North,0,0.9,2.0,73,0.00,,---,0.00,VWS V14.01,2013-02-24 09:31:00,
2013-02-24 03:36:00,30.2,22.6,29.44,North,0,1.1,1.6,73,0.00,,---,0.00,VWS V14.01,2013-02-24 09:36:00,
2013-02-24 03:41:00,30.2,22.6,29.44,North,0,0.0,1.6,73,0.00,,---,0.00,VWS V14.01,2013-02-24 09:41:00,
2013-02-24 03:46:00,30.2,22.6,29.44,North,0,0.0,0.0,73,0.00,,---,0.00,VWS V14.01,2013-02-24 09:46:00,
2013-02-24 03:52:00,30.0,22.4,29.44,North,0,0.0,0.0,73,0.00,,---,0.00,VWS V14.01,2013-02-24 09:52:00,
2013-02-24 03:57:00,29.8,21.9,29.44,North,0,0.0,0.0,72,0.00,,---,0.00,VWS V14.01,2013-02-24 09:57:00,
2013-02-24 04:02:00,29.8,21.6,29.44,North,0,1.1,1.1,71,0.00,,---,0.00,VWS V14.01,2013-02-24 10:02:00,
2013-02-24 04:07:00,29.8,21.9,29.44,North,0,0.0,1.6,72,0.00,,---,0.00,VWS V14.01,2013-02-24 10:07:00,
2013-02-24 04:12:00,29.7,22.4,29.44,WNW,292,1.1,1.6,74,0.00,,---,0.00,VWS V14.01,2013-02-24 10:12:00,
2013-02-24 04:17:00,29.5,21.9,29.41,WNW,292,0.0,0.0,73,0.00,,---,0.00,VWS V14.01,2013-02-24 10:17:00,
2013-02-24 04:22:00,29.5,21.9,29.41,NNW,338,0.0,0.0,73,0.00,,---,0.00,VWS V14.01,2013-02-24 10:22:00,
2013-02-24 04:27:00,29.7,22.1,29.41,North,0,0.9,1.6,73,0.00,,---,0.00,VWS V14.01,2013-02-24 10:27:00,
2013-02-24 04:32:00,30.2,22.9,29.41,NNE,22,2.2,2.2,74,0.00,,---,0.00,VWS V14.01,2013-02-24 10:32:00,
2013-02-24 04:37:00,30.4,23.1,29.41,NNE,22,1.1,2.2,74,0.00,,---,0.00,VWS V14.01,2013-02-24 10:37:00,
2013-02-24 04:42:00,30.4,23.1,29.41,NNE,22,0.0,0.0,74,0.00,,---,0.00,VWS V14.01,2013-02-24 10:42:00,
2013-02-24 04:47:00,30.6,23.0,29.38,NNE,22,0.0,0.0,73,0.00,,---,0.00,VWS V14.01,2013-02-24 10:47:00,
2013-02-24 04:52:00,30.6,23.0,29.38,NNE,22,0.0,0.0,73,0.00,,---,0.00,VWS V14.01,2013-02-24 10:52:00,
2013-02-24 04:57:00,30.6,23.3,29.38,NNE,22,1.6,1.6,74,0.00,,---,0.00,VWS V14.01,2013-02-24 10:57:00,
2013-02-24 05:02:00,30.4,23.4,29.41,NNE,22,1.6,2.2,75,0.00,,---,0.00,VWS V14.01,2013-02-24 11:02:00,
2013-02-24 05:07:00,30.2,23.2,29.41,NNE,22,0.0,2.0,75,0.00,,---,0.00,VWS V14.01,2013-02-24 11:07:00,
2013-02-24 05:12:00,29.8,22.9,29.41,NNE,22,1.3,2.0,75,0.00,,---,0.00,VWS V14.01,2013-02-24 11:12:00,
2013-02-24 05:17:00,29.5,22.2,29.44,NNE,22,1.6,2.0,74,0.00,,---,0.00,VWS V14.01,2013-02-24 11:17:00,
2013-02-24 05:22:00,29.5,22.2,29.44,NNW,338,1.3,2.5,74,0.00,,---,0.00,VWS V14.01,2013-02-24 11:22:00,
2013-02-24 05:27:00,29.5,22.2,29.44,North,0,1.1,2.0,74,0.00,,---,0.00,VWS V14.01,2013-02-24 11:27:00,
2013-02-24 05:32:00,29.3,22.7,29.44,NNW,338,1.6,2.0,76,0.00,,---,0.00,VWS V14.01,2013-02-24 11:32:00,
2013-02-24 05:37:00,29.3,23.0,29.44,West,270,1.3,2.5,77,0.00,,---,0.00,VWS V14.01,2013-02-24 11:37:00,
2013-02-24 05:42:00,29.1,22.8,29.44,NW,315,0.0,2.2,77,0.00,,---,0.00,VWS V14.01,2013-02-24 11:42:00,
2013-02-24 05:47:00,28.9,23.0,29.44,NW,315,1.1,2.2,78,0.00,,---,0.00,VWS V14.01,2013-02-24 11:47:00,
2013-02-24 05:52:00,28.8,22.8,29.44,NW,315,0.0,1.6,78,0.00,,---,0.00,VWS V14.01,2013-02-24 11:52:00,
2013-02-24 05:57:00,28.6,22.3,29.44,NW,315,0.0,0.0,77,0.00,,---,0.00,VWS V14.01,2013-02-24 11:57:00,
2013-02-24 06:02:00,28.6,22.3,29.44,NNW,338,0.0,0.0,77,0.00,,---,0.00,VWS V14.01,2013-02-24 12:02:00,
2013-02-24 06:07:00,28.6,22.0,29.44,NNW,338,0.0,0.0,76,0.00,,---,0.00,VWS V14.01,2013-02-24 12:07:00,
2013-02-24 06:12:00,28.6,22.0,29.44,NNW,338,0.0,0.0,76,0.00,,---,0.00,VWS V14.01,2013-02-24 12:12:00,
2013-02-24 06:17:00,28.6,22.0,29.44,NNW,338,1.1,1.1,76,0.00,,---,0.00,VWS V14.01,2013-02-24 12:17:00,
2013-02-24 06:22:00,28.6,22.3,29.44,NNW,338,0.0,1.3,77,0.00,,---,0.00,VWS V14.01,2013-02-24 12:22:00,
2013-02-24 06:27:00,28.6,22.3,29.44,NNE,22,1.1,1.3,77,0.00,,---,0.00,VWS V14.01,2013-02-24 12:27:00,
2013-02-24 06:33:00,28.6,22.3,29.44,NNE,22,0.0,0.0,77,0.00,,---,0.00,VWS V14.01,2013-02-24 12:33:00,
2013-02-24 06:39:00,28.6,22.3,29.44,NNE,22,0.0,0.0,77,0.00,,---,0.00,VWS V14.01,2013-02-24 12:39:00,
2013-02-24 06:44:00,28.6,22.3,29.44,NNE,22,0.0,0.0,77,0.00,,---,0.00,VWS V14.01,2013-02-24 12:44:00,
2013-02-24 06:49:00,28.8,22.5,29.44,NNE,22,0.0,0.0,77,0.00,,---,0.00,VWS V14.01,2013-02-24 12:49:00,
2013-02-24 06:54:00,28.8,22.5,29.44,NNE,22,0.0,0.0,77,0.00,,---,0.00,VWS V14.01,2013-02-24 12:54:00,
2013-02-24 06:59:00,28.8,22.5,29.44,NNE,22,0.0,0.0,77,0.00,,---,0.00,VWS V14.01,2013-02-24 12:59:00,
2013-02-24 07:04:00,29.3,23.0,29.44,NNE,22,0.0,0.0,77,0.00,,---,0.00,VWS V14.01,2013-02-24 13:04:00,
2013-02-24 07:09:00,29.5,23.2,29.44,NNE,22,0.0,0.0,77,0.00,,---,0.00,VWS V14.01,2013-02-24 13:09:00,
2013-02-24 07:14:00,29.7,23.6,29.44,NNE,22,0.0,0.9,78,0.00,,---,0.00,VWS V14.01,2013-02-24 13:14:00,
2013-02-24 07:19:00,30.0,24.0,29.44,NNE,22,1.6,1.6,78,0.00,,---,0.00,VWS V14.01,2013-02-24 13:19:00,
2013-02-24 07:24:00,30.2,24.2,29.44,NNE,22,0.0,0.0,78,0.00,,---,0.00,VWS V14.01,2013-02-24 13:24:00,
2013-02-24 07:29:00,30.4,24.4,29.44,NW,315,0.0,0.0,78,0.00,,---,0.00,VWS V14.01,2013-02-24 13:29:00,
2013-02-24 07:34:00,30.2,24.2,29.41,NW,315,0.0,1.3,78,0.00,,---,0.00,VWS V14.01,2013-02-24 13:34:00,
2013-02-24 07:39:00,30.2,24.2,29.41,ENE,68,0.9,1.3,78,0.00,,---,0.00,VWS V14.01,2013-02-24 13:39:00,
2013-02-24 07:44:00,30.7,24.7,29.41,WNW,292,1.3,1.3,78,0.00,,---,0.00,VWS V14.01,2013-02-24 13:44:00,
2013-02-24 07:50:00,31.3,25.5,29.44,West,270,2.5,2.7,79,0.00,,---,0.00,VWS V14.01,2013-02-24 13:50:00,
2013-02-24 07:55:00,31.5,26.0,29.44,WSW,248,2.9,3.6,80,0.00,,---,0.00,VWS V14.01,2013-02-24 13:55:00,
2013-02-24 08:00:00,31.8,26.4,29.44,WSW,248,2.0,2.0,80,0.00,,---,0.00,VWS V14.01,2013-02-24 14:00:00,
2013-02-24 08:05:00,32.2,26.7,29.47,West,270,1.3,2.2,80,0.00,,---,0.00,VWS V14.01,2013-02-24 14:05:00,
2013-02-24 08:10:00,32.7,27.2,29.47,West,270,1.1,1.1,80,0.00,,---,0.00,VWS V14.01,2013-02-24 14:10:00,
2013-02-24 08:15:00,33.1,27.3,29.47,West,270,1.6,2.5,79,0.00,,---,0.00,VWS V14.01,2013-02-24 14:15:00,
2013-02-24 08:20:00,33.8,27.7,29.47,WNW,292,2.2,2.2,78,0.00,,---,0.00,VWS V14.01,2013-02-24 14:20:00,
2013-02-24 08:25:00,34.7,28.5,29.47,NNW,338,1.3,2.0,78,0.00,,---,0.00,VWS V14.01,2013-02-24 14:25:00,
2013-02-24 08:30:00,35.4,29.2,29.47,NNW,338,0.0,0.0,78,0.00,,---,0.00,VWS V14.01,2013-02-24 14:30:00,
2013-02-24 08:35:00,36.5,29.3,29.47,NNE,22,1.3,2.0,75,0.00,,---,0.00,VWS V14.01,2013-02-24 14:35:00,
2013-02-24 08:40:00,37.2,29.7,29.47,ESE,112,3.6,7.6,74,0.00,,---,0.00,VWS V14.01,2013-02-24 14:40:00,
2013-02-24 08:45:00,38.8,27.0,29.47,East,90,2.0,5.8,62,0.00,,---,0.00,VWS V14.01,2013-02-24 14:45:00,
2013-02-24 08:50:00,39.9,25.1,29.44,SSE,158,4.0,5.4,55,0.00,,---,0.00,VWS V14.01,2013-02-24 14:50:00,
2013-02-24 08:55:00,40.5,22.8,29.44,ESE,112,2.5,6.3,49,0.00,,---,0.00,VWS V14.01,2013-02-24 14:55:00,
2013-02-24 09:00:00,41.0,21.3,29.44,ESE,112,5.6,6.3,45,0.00,,---,0.00,VWS V14.01,2013-02-24 15:00:00,
2013-02-24 09:06:00,41.9,22.6,29.47,SE,135,3.4,3.8,46,0.00,,---,0.00,VWS V14.01,2013-02-24 15:06:00,
2013-02-24 09:11:00,42.3,21.4,29.47,ESE,112,4.9,6.0,43,0.00,,---,0.00,VWS V14.01,2013-02-24 15:11:00,
2013-02-24 09:16:00,42.6,21.1,29.47,East,90,6.0,7.4,42,0.00,,---,0.00,VWS V14.01,2013-02-24 15:16:00,
2013-02-24 09:21:00,43.0,20.9,29.47,NE,45,2.2,6.3,41,0.00,,---,0.00,VWS V14.01,2013-02-24 15:21:00,
2013-02-24 09:26:00,43.2,19.9,29.47,East,90,2.7,7.6,39,0.00,,---,0.00,VWS V14.01,2013-02-24 15:26:00,
2013-02-24 09:31:00,43.2,19.9,29.47,SSE,158,3.6,4.7,39,0.00,,---,0.00,VWS V14.01,2013-02-24 15:31:00,
2013-02-24 09:36:00,44.6,21.2,29.47,ESE,112,7.2,7.2,39,0.00,,---,0.00,VWS V14.01,2013-02-24 15:36:00,
2013-02-24 09:41:00,44.6,20.6,29.47,ESE,112,3.6,6.5,38,0.00,,---,0.00,VWS V14.01,2013-02-24 15:41:00,
2013-02-24 09:46:00,45.0,20.3,29.47,ESE,112,3.8,10.1,37,0.00,,---,0.00,VWS V14.01,2013-02-24 15:46:00,
2013-02-24 09:51:00,45.1,19.1,29.47,ESE,112,5.8,13.9,35,0.00,,---,0.00,VWS V14.01,2013-02-24 15:51:00,
2013-02-24 09:56:00,45.1,18.5,29.47,SSE,158,8.1,8.1,34,0.00,,---,0.00,VWS V14.01,2013-02-24 15:56:00,
2013-02-24 10:01:00,45.9,19.8,29.44,ESE,112,4.3,5.6,35,0.00,,---,0.00,VWS V14.01,2013-02-24 16:01:00,
2013-02-24 10:06:00,46.0,19.3,29.44,SE,135,5.8,10.5,34,0.00,,---,0.00,VWS V14.01,2013-02-24 16:06:00,
2013-02-24 10:11:00,45.9,18.4,29.44,ENE,68,4.5,9.8,33,0.00,,---,0.00,VWS V14.01,2013-02-24 16:11:00,
2013-02-24 10:16:00,45.9,17.7,29.47,ESE,112,3.1,7.2,32,0.00,,---,0.00,VWS V14.01,2013-02-24 16:16:00,
2013-02-24 10:21:00,46.0,17.9,29.47,NE,45,3.6,7.4,32,0.00,,---,0.00,VWS V14.01,2013-02-24 16:21:00,
2013-02-24 10:26:00,46.4,18.2,29.47,ESE,112,7.8,8.7,32,0.00,,---,0.00,VWS V14.01,2013-02-24 16:26:00,
2013-02-24 10:31:00,46.8,18.5,29.47,East,90,5.4,7.2,32,0.00,,---,0.00,VWS V14.01,2013-02-24 16:31:00,
2013-02-24 10:36:00,46.8,18.5,29.47,ENE,68,5.6,8.5,32,0.00,,---,0.00,VWS V14.01,2013-02-24 16:36:00,
2013-02-24 10:41:00,47.1,18.8,29.47,ENE,68,5.4,8.7,32,0.00,,---,0.00,VWS V14.01,2013-02-24 16:41:00,
2013-02-24 10:46:00,47.8,19.4,29.44,NE,45,3.4,5.8,32,0.00,,---,0.00,VWS V14.01,2013-02-24 16:46:00,
2013-02-24 10:51:00,48.2,19.7,29.44,East,90,3.1,7.2,32,0.00,,---,0.00,VWS V14.01,2013-02-24 16:51:00,
2013-02-24 10:56:00,48.2,19.0,29.44,ESE,112,5.8,8.5,31,0.00,,---,0.00,VWS V14.01,2013-02-24 16:56:00,
2013-02-24 11:01:00,48.4,18.4,29.44,East,90,5.6,7.8,30,0.00,,---,0.00,VWS V14.01,2013-02-24 17:01:00,
2013-02-24 11:06:00,48.7,18.7,29.44,ESE,112,5.6,8.7,30,0.00,,---,0.00,VWS V14.01,2013-02-24 17:06:00,
2013-02-24 11:11:00,49.1,19.0,29.44,SE,135,7.8,8.5,30,0.00,,---,0.00,VWS V14.01,2013-02-24 17:11:00,
2013-02-24 11:17:00,49.8,19.6,29.44,ESE,112,4.3,8.1,30,0.00,,---,0.00,VWS V14.01,2013-02-24 17:17:00,
2013-02-24 11:22:00,50.0,19.8,29.44,ESE,112,4.9,8.7,30,0.00,,---,0.00,VWS V14.01,2013-02-24 17:22:00,
2013-02-24 11:27:00,50.2,19.2,29.44,ESE,112,4.9,8.1,29,0.00,,---,0.00,VWS V14.01,2013-02-24 17:27:00,
2013-02-24 11:32:00,50.0,19.0,29.44,NE,45,8.5,8.5,29,0.00,,---,0.00,VWS V14.01,2013-02-24 17:32:00,
2013-02-24 11:37:00,50.2,19.2,29.44,ESE,112,7.4,10.1,29,0.00,,---,0.00,VWS V14.01,2013-02-24 17:37:00,
2013-02-24 11:42:00,50.5,19.5,29.44,ESE,112,4.0,10.3,29,0.00,,---,0.00,VWS V14.01,2013-02-24 17:42:00,
2013-02-24 11:47:00,50.9,19.8,29.44,SE,135,3.6,9.6,29,0.00,,---,0.00,VWS V14.01,2013-02-24 17:47:00,
2013-02-24 11:52:00,51.6,20.4,29.44,East,90,7.4,7.4,29,0.00,,---,0.00,VWS V14.01,2013-02-24 17:52:00,
2013-02-24 11:57:00,51.4,20.3,29.44,ESE,112,5.4,10.1,29,0.00,,---,0.00,VWS V14.01,2013-02-24 17:57:00,
2013-02-24 12:02:00,51.4,19.4,29.44,ENE,68,5.6,8.1,28,0.00,,---,0.00,VWS V14.01,2013-02-24 18:02:00,
2013-02-24 12:07:00,51.4,20.3,29.44,ENE,68,5.8,8.7,29,0.00,,---,0.00,VWS V14.01,2013-02-24 18:07:00,
2013-02-24 12:12:00,52.0,19.9,29.44,West,270,4.3,9.6,28,0.00,,---,0.00,VWS V14.01,2013-02-24 18:12:00,
2013-02-24 12:17:00,52.7,20.5,29.44,ESE,112,10.3,10.7,28,0.00,,---,0.00,VWS V14.01,2013-02-24 18:17:00,
2013-02-24 12:22:00,52.7,20.5,29.44,SE,135,5.8,6.5,28,0.00,,---,0.00,VWS V14.01,2013-02-24 18:22:00,
2013-02-24 12:27:00,53.4,21.1,29.44,ESE,112,4.9,6.5,28,0.00,,---,0.00,VWS V14.01,2013-02-24 18:27:00,
2013-02-24 12:32:00,53.4,21.1,29.41,ESE,112,5.8,10.3,28,0.00,,---,0.00,VWS V14.01,2013-02-24 18:32:00,
2013-02-24 12:37:00,53.4,21.1,29.41,SSW,202,3.8,6.3,28,0.00,,---,0.00,VWS V14.01,2013-02-24 18:37:00,
2013-02-24 12:42:00,53.4,21.1,29.41,ESE,112,11.0,11.0,28,0.00,,---,0.00,VWS V14.01,2013-02-24 18:42:00,
2013-02-24 12:47:00,53.2,21.0,29.38,East,90,9.2,10.5,28,0.00,,---,0.00,VWS V14.01,2013-02-24 18:47:00,
2013-02-24 12:52:00,53.1,20.8,29.38,ESE,112,6.3,6.7,28,0.00,,---,0.00,VWS V14.01,2013-02-24 18:52:00,
2013-02-24 12:57:00,53.4,21.1,29.38,ESE,112,3.1,8.1,28,0.00,,---,0.00,VWS V14.01,2013-02-24 18:57:00,
2013-02-24 13:02:00,54.1,20.9,29.38,SSW,202,5.8,6.5,27,0.00,,---,0.00,VWS V14.01,2013-02-24 19:02:00,
2013-02-24 13:07:00,54.3,21.9,29.38,ESE,112,4.7,8.5,28,0.00,,---,0.00,VWS V14.01,2013-02-24 19:07:00,
2013-02-24 13:12:00,54.5,21.2,29.38,East,90,5.8,10.3,27,0.00,,---,0.00,VWS V14.01,2013-02-24 19:12:00,
2013-02-24 13:17:00,54.5,21.2,29.38,SSE,158,4.9,8.5,27,0.00,,---,0.00,VWS V14.01,2013-02-24 19:17:00,
2013-02-24 13:22:00,54.7,21.4,29.38,East,90,4.9,8.5,27,0.00,,---,0.00,VWS V14.01,2013-02-24 19:22:00,
2013-02-24 13:27:00,54.9,21.5,29.38,East,90,5.4,8.1,27,0.00,,---,0.00,VWS V14.01,2013-02-24 19:27:00,
2013-02-24 13:33:00,55.6,22.1,29.35,East,90,4.9,7.4,27,0.00,,---,0.00,VWS V14.01,2013-02-24 19:33:00,
2013-02-24 13:38:00,55.9,22.5,29.35,East,90,3.6,7.4,27,0.00,,---,0.00,VWS V14.01,2013-02-24 19:38:00,
2013-02-24 13:43:00,56.1,22.6,29.35,East,90,4.3,6.5,27,0.00,,---,0.00,VWS V14.01,2013-02-24 19:43:00,
2013-02-24 13:48:00,55.8,21.4,29.38,ESE,112,2.9,10.7,26,0.00,,---,0.00,VWS V14.01,2013-02-24 19:48:00,
2013-02-24 13:53:00,55.4,21.1,29.38,SE,135,6.0,9.8,26,0.00,,---,0.00,VWS V14.01,2013-02-24 19:53:00,
2013-02-24 13:58:00,55.8,21.4,29.38,ENE,68,5.4,9.8,26,0.00,,---,0.00,VWS V14.01,2013-02-24 19:58:00,
2013-02-24 14:03:00,55.8,21.4,29.35,ESE,112,3.1,12.1,26,0.00,,---,0.00,VWS V14.01,2013-02-24 20:03:00,
2013-02-24 14:08:00,55.8,21.4,29.35,ESE,112,6.5,17.0,26,0.00,,---,0.00,VWS V14.01,2013-02-24 20:08:00,
2013-02-24 14:13:00,55.8,21.4,29.35,ESE,112,3.8,8.7,26,0.00,,---,0.00,VWS V14.01,2013-02-24 20:13:00,
2013-02-24 14:18:00,55.9,21.6,29.35,SSE,158,7.4,8.1,26,0.00,,---,0.00,VWS V14.01,2013-02-24 20:18:00,
2013-02-24 14:23:00,55.6,21.3,29.35,ESE,112,5.8,11.0,26,0.00,,---,0.00,VWS V14.01,2013-02-24 20:23:00,
2013-02-24 14:28:00,55.9,21.6,29.35,SE,135,6.3,10.3,26,0.00,,---,0.00,VWS V14.01,2013-02-24 20:28:00,
2013-02-24 14:33:00,56.3,21.9,29.35,ESE,112,3.6,7.4,26,0.00,,---,0.00,VWS V14.01,2013-02-24 20:33:00,
2013-02-24 14:38:00,55.9,21.6,29.35,ENE,68,3.4,10.7,26,0.00,,---,0.00,VWS V14.01,2013-02-24 20:38:00,
2013-02-24 14:43:00,56.3,21.9,29.35,East,90,5.6,10.5,26,0.00,,---,0.00,VWS V14.01,2013-02-24 20:43:00,
2013-02-24 14:48:00,56.5,22.0,29.32,ESE,112,8.7,9.6,26,0.00,,---,0.00,VWS V14.01,2013-02-24 20:48:00,
2013-02-24 14:53:00,56.1,21.7,29.32,ESE,112,5.4,7.4,26,0.00,,---,0.00,VWS V14.01,2013-02-24 20:53:00,
2013-02-24 14:58:00,56.3,21.9,29.32,East,90,6.5,7.6,26,0.00,,---,0.00,VWS V14.01,2013-02-24 20:58:00,
2013-02-24 15:03:00,56.7,22.2,29.32,ENE,68,4.7,7.8,26,0.00,,---,0.00,VWS V14.01,2013-02-24 21:03:00,
2013-02-24 15:08:00,56.7,22.2,29.32,East,90,6.0,8.1,26,0.00,,---,0.00,VWS V14.01,2013-02-24 21:08:00,
2013-02-24 15:13:00,56.3,21.9,29.32,ESE,112,7.4,12.3,26,0.00,,---,0.00,VWS V14.01,2013-02-24 21:13:00,
2013-02-24 15:18:00,56.5,22.0,29.32,ESE,112,6.5,8.1,26,0.00,,---,0.00,VWS V14.01,2013-02-24 21:18:00,
2013-02-24 15:23:00,56.7,22.2,29.32,SE,135,8.1,8.1,26,0.00,,---,0.00,VWS V14.01,2013-02-24 21:23:00,
2013-02-24 15:28:00,56.8,22.3,29.32,ENE,68,5.8,8.7,26,0.00,,---,0.00,VWS V14.01,2013-02-24 21:28:00,
2013-02-24 15:33:00,57.0,22.5,29.29,SE,135,3.8,10.7,26,0.00,,---,0.00,VWS V14.01,2013-02-24 21:33:00,
2013-02-24 15:38:00,56.8,22.3,29.29,ESE,112,6.5,10.1,26,0.00,,---,0.00,VWS V14.01,2013-02-24 21:38:00,
2013-02-24 15:43:00,56.7,22.2,29.29,ESE,112,7.6,11.0,26,0.00,,---,0.00,VWS V14.01,2013-02-24 21:43:00,
2013-02-24 15:48:00,56.7,22.2,29.32,East,90,7.4,12.5,26,0.00,,---,0.00,VWS V14.01,2013-02-24 21:48:00,
2013-02-24 15:53:00,57.0,22.5,29.32,ESE,112,7.6,11.4,26,0.00,,---,0.00,VWS V14.01,2013-02-24 21:53:00,
2013-02-24 15:58:00,57.4,21.9,29.32,ESE,112,5.6,7.4,25,0.00,,---,0.00,VWS V14.01,2013-02-24 21:58:00,
2013-02-24 16:03:00,57.4,21.9,29.29,ESE,112,3.6,10.3,25,0.00,,---,0.00,VWS V14.01,2013-02-24 22:03:00,
2013-02-24 16:08:00,57.6,22.0,29.29,East,90,5.4,7.2,25,0.00,,---,0.00,VWS V14.01,2013-02-24 22:08:00,
2013-02-24 16:13:00,57.6,22.0,29.29,East,90,7.6,8.5,25,0.00,,---,0.00,VWS V14.01,2013-02-24 22:13:00,
2013-02-24 16:19:00,57.2,21.7,29.32,ESE,112,9.8,10.3,25,0.00,,---,0.00,VWS V14.01,2013-02-24 22:19:00,
2013-02-24 16:24:00,57.0,22.5,29.32,ENE,68,4.7,10.5,26,0.00,,---,0.00,VWS V14.01,2013-02-24 22:24:00,
2013-02-24 16:29:00,57.0,22.5,29.32,East,90,4.9,8.1,26,0.00,,---,0.00,VWS V14.01,2013-02-24 22:29:00,
2013-02-24 16:34:00,57.2,21.7,29.29,NNE,22,7.8,7.8,25,0.00,,---,0.00,VWS V14.01,2013-02-24 22:34:00,
2013-02-24 16:39:00,57.2,21.7,29.29,ENE,68,2.5,9.6,25,0.00,,---,0.00,VWS V14.01,2013-02-24 22:39:00,
2013-02-24 16:44:00,57.2,21.7,29.29,ENE,68,5.8,5.8,25,0.00,,---,0.00,VWS V14.01,2013-02-24 22:44:00,
2013-02-24 16:49:00,57.2,21.7,29.32,NE,45,4.3,7.2,25,0.00,,---,0.00,VWS V14.01,2013-02-24 22:49:00,
2013-02-24 16:54:00,57.0,22.5,29.32,East,90,5.4,6.3,26,0.00,,---,0.00,VWS V14.01,2013-02-24 22:54:00,
2013-02-24 16:59:00,57.0,22.5,29.32,East,90,6.5,7.4,26,0.00,,---,0.00,VWS V14.01,2013-02-24 22:59:00,
2013-02-24 17:04:00,56.5,22.0,29.29,ESE,112,10.5,10.5,26,0.00,,---,0.00,VWS V14.01,2013-02-24 23:04:00,
2013-02-24 17:09:00,56.3,21.9,29.29,ENE,68,6.0,10.5,26,0.00,,---,0.00,VWS V14.01,2013-02-24 23:09:00,
2013-02-24 17:14:00,56.1,21.7,29.29,ENE,68,6.3,6.3,26,0.00,,---,0.00,VWS V14.01,2013-02-24 23:14:00,
2013-02-24 17:19:00,55.9,21.6,29.29,East,90,3.6,5.4,26,0.00,,---,0.00,VWS V14.01,2013-02-24 23:19:00,
2013-02-24 17:24:00,55.8,21.4,29.29,ESE,112,8.5,8.5,26,0.00,,---,0.00,VWS V14.01,2013-02-24 23:24:00,
2013-02-24 17:29:00,55.4,21.1,29.29,ESE,112,7.2,7.8,26,0.00,,---,0.00,VWS V14.01,2013-02-24 23:29:00,
2013-02-24 17:34:00,55.2,21.0,29.26,ESE,112,3.8,3.8,26,0.00,,---,0.00,VWS V14.01,2013-02-24 23:34:00,
2013-02-24 17:39:00,55.0,20.8,29.26,ESE,112,3.8,6.0,26,0.00,,---,0.00,VWS V14.01,2013-02-24 23:39:00,
2013-02-24 17:44:00,54.5,20.3,29.26,SSE,158,4.3,4.3,26,0.00,,---,0.00,VWS V14.01,2013-02-24 23:44:00,
2013-02-24 17:49:00,54.3,20.2,29.26,ESE,112,5.4,5.4,26,0.00,,---,0.00,VWS V14.01,2013-02-24 23:49:00,
2013-02-24 17:54:00,53.8,19.7,29.26,East,90,3.6,6.9,26,0.00,,---,0.00,VWS V14.01,2013-02-24 23:54:00,
2013-02-24 17:59:00,53.2,20.1,29.26,ENE,68,3.6,4.9,27,0.00,,---,0.00,VWS V14.01,2013-02-24 23:59:00,
2013-02-24 18:04:00,53.1,20.0,29.26,ENE,68,3.1,3.6,27,0.00,,---,0.00,VWS V14.01,2013-02-25 00:04:00,
2013-02-24 18:09:00,52.3,19.4,29.26,ESE,112,2.7,4.3,27,0.00,,---,0.00,VWS V14.01,2013-02-25 00:09:00,
2013-02-24 18:14:00,52.0,19.1,29.26,ENE,68,2.9,4.0,27,0.00,,---,0.00,VWS V14.01,2013-02-25 00:14:00,
2013-02-24 18:19:00,51.8,18.9,29.26,ENE,68,2.2,2.5,27,0.00,,---,0.00,VWS V14.01,2013-02-25 00:19:00,
2013-02-24 18:24:00,51.4,19.4,29.26,ENE,68,2.9,4.3,28,0.00,,---,0.00,VWS V14.01,2013-02-25 00:24:00,
2013-02-24 18:29:00,50.9,19.0,29.26,East,90,3.6,3.6,28,0.00,,---,0.00,VWS V14.01,2013-02-25 00:29:00,
2013-02-24 18:34:00,50.5,18.7,29.29,ENE,68,2.5,4.3,28,0.00,,---,0.00,VWS V14.01,2013-02-25 00:34:00,
2013-02-24 18:39:00,50.4,19.3,29.29,ESE,112,2.7,5.8,29,0.00,,---,0.00,VWS V14.01,2013-02-25 00:39:00,
2013-02-24 18:44:00,50.2,19.2,29.29,East,90,4.5,4.5,29,0.00,,---,0.00,VWS V14.01,2013-02-25 00:44:00,
2013-02-24 18:50:00,50.0,19.0,29.26,ENE,68,3.4,3.4,29,0.00,,---,0.00,VWS V14.01,2013-02-25 00:50:00,
2013-02-24 18:55:00,49.8,19.6,29.26,East,90,3.4,6.0,30,0.00,,---,0.00,VWS V14.01,2013-02-25 00:55:00,
2013-02-24 19:00:00,49.6,19.5,29.26,ESE,112,4.0,5.4,30,0.00,,---,0.00,VWS V14.01,2013-02-25 01:00:00,
2013-02-24 19:05:00,49.5,20.1,29.29,ENE,68,3.4,3.6,31,0.00,,---,0.00,VWS V14.01,2013-02-25 01:05:00,
2013-02-24 19:10:00,49.5,20.1,29.29,East,90,2.9,6.7,31,0.00,,---,0.00,VWS V14.01,2013-02-25 01:10:00,
2013-02-24 19:15:00,49.5,20.1,29.29,ESE,112,4.3,4.3,31,0.00,,---,0.00,VWS V14.01,2013-02-25 01:15:00,
2013-02-24 19:20:00,49.5,20.1,29.32,ENE,68,6.5,6.5,31,0.00,,---,0.00,VWS V14.01,2013-02-25 01:20:00,
2013-02-24 19:25:00,49.3,20.7,29.32,East,90,3.6,3.6,32,0.00,,---,0.00,VWS V14.01,2013-02-25 01:25:00,
2013-02-24 19:30:00,49.1,20.5,29.32,ENE,68,2.7,5.8,32,0.00,,---,0.00,VWS V14.01,2013-02-25 01:30:00,
2013-02-24 19:35:00,49.1,20.5,29.32,ENE,68,2.7,6.0,32,0.00,,---,0.00,VWS V14.01,2013-02-25 01:35:00,
2013-02-24 19:40:00,48.7,20.9,29.32,ENE,68,4.0,4.0,33,0.00,,---,0.00,VWS V14.01,2013-02-25 01:40:00,
2013-02-24 19:45:00,48.7,20.9,29.32,East,90,3.8,4.9,33,0.00,,---,0.00,VWS V14.01,2013-02-25 01:45:00,
2013-02-24 19:50:00,48.6,20.8,29.32,ESE,112,5.6,7.8,33,0.00,,---,0.00,VWS V14.01,2013-02-25 01:50:00,
2013-02-24 19:55:00,48.4,21.3,29.32,East,90,3.6,4.9,34,0.00,,---,0.00,VWS V14.01,2013-02-25 01:55:00,
2013-02-24 20:00:00,48.4,21.3,29.32,ESE,112,4.3,4.3,34,0.00,,---,0.00,VWS V14.01,2013-02-25 02:00:00,
2013-02-24 20:05:00,48.2,21.9,29.32,East,90,3.4,6.0,35,0.00,,---,0.00,VWS V14.01,2013-02-25 02:05:00,
2013-02-24 20:10:00,48.0,22.4,29.32,ENE,68,3.6,3.8,36,0.00,,---,0.00,VWS V14.01,2013-02-25 02:10:00,
2013-02-24 20:15:00,47.8,22.2,29.32,East,90,3.6,7.4,36,0.00,,---,0.00,VWS V14.01,2013-02-25 02:15:00,
2013-02-24 20:20:00,47.7,22.0,29.32,ESE,112,2.7,3.8,36,0.00,,---,0.00,VWS V14.01,2013-02-25 02:20:00,
2013-02-24 20:25:00,47.5,22.5,29.32,ENE,68,4.3,6.3,37,0.00,,---,0.00,VWS V14.01,2013-02-25 02:25:00,
2013-02-24 20:30:00,47.3,22.4,29.32,ESE,112,4.0,5.4,37,0.00,,---,0.00,VWS V14.01,2013-02-25 02:30:00,
2013-02-24 20:35:00,47.1,22.2,29.32,East,90,5.6,5.6,37,0.00,,---,0.00,VWS V14.01,2013-02-25 02:35:00,
2013-02-24 20:40:00,46.9,22.0,29.32,ENE,68,2.9,3.1,37,0.00,,---,0.00,VWS V14.01,2013-02-25 02:40:00,
2013-02-24 20:45:00,46.8,21.9,29.32,East,90,3.8,6.3,37,0.00,,---,0.00,VWS V14.01,2013-02-25 02:45:00,
2013-02-24 20:50:00,46.4,21.6,29.32,East,90,2.7,3.6,37,0.00,,---,0.00,VWS V14.01,2013-02-25 02:50:00,
2013-02-24 20:55:00,46.2,22.0,29.32,ENE,68,3.4,3.8,38,0.00,,---,0.00,VWS V14.01,2013-02-25 02:55:00,
2013-02-24 21:00:00,46.2,22.0,29.32,ESE,112,4.3,5.4,38,0.00,,---,0.00,VWS V14.01,2013-02-25 03:00:00,
2013-02-24 21:05:00,46.0,21.9,29.32,ESE,112,3.1,5.4,38,0.00,,---,0.00,VWS V14.01,2013-02-25 03:05:00,
2013-02-24 21:10:00,45.9,22.3,29.32,ESE,112,4.3,5.4,39,0.00,,---,0.00,VWS V14.01,2013-02-25 03:10:00,
2013-02-24 21:15:00,45.7,22.2,29.32,East,90,5.4,5.4,39,0.00,,---,0.00,VWS V14.01,2013-02-25 03:15:00,
2013-02-24 21:20:00,45.5,22.0,29.32,ESE,112,2.2,2.7,39,0.00,,---,0.00,VWS V14.01,2013-02-25 03:20:00,
2013-02-24 21:25:00,45.3,21.8,29.32,ESE,112,4.0,4.0,39,0.00,,---,0.00,VWS V14.01,2013-02-25 03:25:00,
2013-02-24 21:30:00,45.1,22.3,29.32,ESE,112,4.5,4.5,40,0.00,,---,0.00,VWS V14.01,2013-02-25 03:30:00,
2013-02-24 21:36:00,45.3,22.4,29.29,SSE,158,7.4,7.6,40,0.00,,---,0.00,VWS V14.01,2013-02-25 03:36:00,
2013-02-24 21:41:00,45.3,22.4,29.29,East,90,3.1,4.3,40,0.00,,---,0.00,VWS V14.01,2013-02-25 03:41:00,
2013-02-24 21:46:00,45.3,22.4,29.29,East,90,3.8,4.9,40,0.00,,---,0.00,VWS V14.01,2013-02-25 03:46:00,
2013-02-24 21:51:00,45.1,22.3,29.29,ESE,112,2.5,5.4,40,0.00,,---,0.00,VWS V14.01,2013-02-25 03:51:00,
2013-02-24 21:56:00,45.1,22.3,29.29,ENE,68,3.4,8.1,40,0.00,,---,0.00,VWS V14.01,2013-02-25 03:56:00,
2013-02-24 22:01:00,45.1,22.3,29.29,ESE,112,2.2,4.3,40,0.00,,---,0.00,VWS V14.01,2013-02-25 04:01:00,
2013-02-24 22:06:00,44.8,22.5,29.29,ESE,112,3.1,4.0,41,0.00,,---,0.00,VWS V14.01,2013-02-25 04:06:00,
2013-02-24 22:11:00,44.8,22.5,29.29,ESE,112,1.1,2.7,41,0.00,,---,0.00,VWS V14.01,2013-02-25 04:11:00,
2013-02-24 22:16:00,44.6,22.4,29.29,SE,135,2.7,4.5,41,0.00,,---,0.00,VWS V14.01,2013-02-25 04:16:00,
2013-02-24 22:21:00,44.6,22.4,29.29,East,90,2.0,2.9,41,0.00,,---,0.00,VWS V14.01,2013-02-25 04:21:00,
2013-02-24 22:26:00,44.4,22.8,29.29,East,90,2.7,4.0,42,0.00,,---,0.00,VWS V14.01,2013-02-25 04:26:00,
2013-02-24 22:31:00,44.2,22.6,29.29,NE,45,1.1,3.4,42,0.00,,---,0.00,VWS V14.01,2013-02-25 04:31:00,
2013-02-24 22:36:00,44.1,23.0,29.26,East,90,6.0,6.0,43,0.00,,---,0.00,VWS V14.01,2013-02-25 04:36:00,
2013-02-24 22:41:00,43.9,22.9,29.26,NNE,22,1.6,3.6,43,0.00,,---,0.00,VWS V14.01,2013-02-25 04:41:00,
2013-02-24 22:46:00,43.9,22.9,29.26,NNE,22,2.7,3.6,43,0.00,,---,0.00,VWS V14.01,2013-02-25 04:46:00,
2013-02-24 22:51:00,43.7,23.2,29.26,ENE,68,0.0,2.7,44,0.00,,---,0.00,VWS V14.01,2013-02-25 04:51:00,
2013-02-24 22:56:00,43.5,22.5,29.26,ENE,68,1.3,2.5,43,0.00,,---,0.00,VWS V14.01,2013-02-25 04:56:00,
2013-02-24 23:00:00,43.3,22.4,29.26,ENE,68,2.5,2.7,43,0.00,,---,0.00,VWS V14.01,2013-02-25 05:00:00,
2013-02-24 23:04:00,43.3,22.9,29.26,NE,45,1.1,2.5,44,0.00,,---,0.00,VWS V14.01,2013-02-25 05:04:00,
2013-02-24 23:06:00,43.2,22.7,29.26,ENE,68,1.6,2.7,44,0.00,,---,0.00,VWS V14.01,2013-02-25 05:06:00,
2013-02-24 23:09:00,43.2,22.7,29.26,East,90,2.7,2.7,44,0.00,,---,0.00,VWS V14.01,2013-02-25 05:09:00,
2013-02-24 23:14:00,43.2,22.7,29.26,ENE,68,1.3,3.1,44,0.00,,---,0.00,VWS V14.01,2013-02-25 05:14:00,
2013-02-24 23:19:00,43.2,22.7,29.29,ENE,68,2.0,3.8,44,0.00,,---,0.00,VWS V14.01,2013-02-25 05:19:00,
2013-02-24 23:24:00,43.3,22.9,29.29,East,90,2.5,2.9,44,0.00,,---,0.00,VWS V14.01,2013-02-25 05:24:00,
2013-02-24 23:29:00,43.3,22.9,29.29,ENE,68,2.7,3.1,44,0.00,,---,0.00,VWS V14.01,2013-02-25 05:29:00,
2013-02-24 23:34:00,42.8,23.0,29.26,SSE,158,1.6,2.7,45,0.00,,---,0.00,VWS V14.01,2013-02-25 05:34:00,
2013-02-24 23:39:00,42.6,22.8,29.26,East,90,2.5,3.8,45,0.00,,---,0.00,VWS V14.01,2013-02-25 05:39:00,
2013-02-24 23:44:00,42.8,22.4,29.26,SSE,158,3.6,3.6,44,0.00,,---,0.00,VWS V14.01,2013-02-25 05:44:00,
2013-02-24 23:49:00,42.8,22.4,29.26,ENE,68,3.8,3.8,44,0.00,,---,0.00,VWS V14.01,2013-02-25 05:49:00,
2013-02-24 23:54:00,43.0,22.6,29.26,ENE,68,3.1,3.1,44,0.00,,---,0.00,VWS V14.01,2013-02-25 05:54:00,
2013-02-24 23:59:00,42.8,22.4,29.26,ESE,112,2.9,4.7,44,0.00,,---,0.00,VWS V14.01,2013-02-25 05:59:00,